STARLINK-34474

Last updated on Thu Jul 03 2025 00:02:07 GMT+0000 (Coordinated Universal Time)

1 64474U 25133C 25183.58335648 -.01040489 00000+0 -51538-2 0 9991 2 64474 53.1555 210.8473 0000963 62.2477 277.6768 15.83883001 2701
UTC large
Height (km)
Speed (km/s)
/
Latitude / Longitude
Inclination (degrees)
Orbital Period (minutes)
Azimuth
Elevation
Range (km)
Doppler Factor

Next 0 passes for location: London (51.5072 / 0.1276)

Sorry there are no passes over London.